Content
SEND FEEDBACK

Daily
Averages
Monthly
Summary
United States of America

CHICAGO, ILLINOIS


Home > North America > United States > Illinois
Elevation: 674 feet     Latitude: 41 59N     Longitude: 087 54W

WEATHER
 
SELECT A DAY
Number of Records: 197,256;   Date Range: 7/8/95 - 9/30/14
 
SHARE

PRINT THIS DATA

[ ← Previous Day ]
WEATHER ALMANAC - JANUARY 27, 2013
[ Next Day → ]
[ °C ]   °F
Weather ElementAverageHighLow
Temperature30.6 °F36 °F (11:52 pm)24.1 °F (2:52 am)
Dewpoint25.4 °F35.1 °F (11:52 pm)17.1 °F (1:52 am)
Humidity81.6 %97 % (11:52 pm)64 % (11:52 am)
Barometer30.14 in30.40 in (1:52 am)29.92 in (11:44 pm)
Wind Speed11.4 mph23 mph (4:48 pm)
Wind Gust33.4 mph (4:48 pm)
Weather ElementAverage
Visibility4.4 mi
Wind DirectionSSE (154.8 °)

Weather ElementTotal
Precipitation0.32 in
Heating Degree Days35 (Base 65)
Averaged from 44 records on January 27, 2013
WEATHER CONDITIONS BREAKOUT
WIND DIRECTION BREAKOUT
WEATHER BY HOUR - JANUARY 27, 2013
[ °C ]   °F
Local TimeTemperatureDewpointHumidityBarometerVisibilityWind DirectionWind SpeedGust SpeedPrecipitationEventsConditions
1:52 AM25.0 °F17.1 °F72 %30.40 in10.0 miSSE (160°)6.9 mphPartly Cloudy
2:52 AM24.1 °F17.1 °F75 %30.40 in9.0 miSouth (170°)8.1 mphScattered Clouds
3:52 AM24.1 °F17.1 °F75 %30.38 in9.0 miSouth (170°)9.2 mphClear
4:52 AM25.0 °F17.1 °F72 %30.35 in9.0 miSSE (150°)6.9 mphPartly Cloudy
5:52 AM25.0 °F17.1 °F72 %30.36 in9.0 miSSE (160°)9.2 mphClear
6:52 AM26.1 °F17.1 °F69 %30.35 in9.0 miSSE (160°)11.5 mphMostly Cloudy
7:52 AM26.1 °F17.1 °F69 %30.36 in7.0 miSouth (170°)9.2 mphMostly Cloudy
8:52 AM27.0 °F18.0 °F69 %30.35 in7.0 miSouth (170°)10.4 mphOvercast
9:52 AM28.9 °F19.0 °F67 %30.38 in7.0 miSouth (170°)10.4 mphOvercast
10:52 AM30.0 °F19.9 °F66 %30.34 in7.0 miSSE (160°)12.7 mph0.00 inOvercast
11:52 AM30.9 °F19.9 °F64 %30.28 in6.0 miSE (140°)9.2 mphHaze
12:52 PM30.9 °F21.0 °F67 %30.24 in5.0 miSSE (150°)9.2 mph0.00 inOvercast
1:52 PM30.9 °F21.9 °F69 %30.21 in4.0 miSE (130°)6.9 mph0.00 inSnowLight Snow
1:57 PM30.2 °F21.2 °F69 %30.18 in1.8 miSE (130°)8.1 mph0.00 inSnowLight Snow
2:12 PM30.2 °F23.0 °F75 %30.16 in2.0 miSE (130°)8.1 mph0.00 inSnowLight Snow
2:20 PM30.2 °F24.8 °F80 %30.16 in1.8 miSSE (150°)8.1 mph0.00 inSnowLight Snow
2:28 PM30.2 °F24.8 °F80 %30.17 in2.5 miVariable6.9 mph0.00 inRainLight Freezing Rain
2:35 PM30.2 °F24.8 °F80 %30.15 in3.0 miSE (130°)10.4 mph0.00 inRainLight Freezing Rain
2:52 PM30.0 °F25.0 °F82 %30.19 in3.0 miSE (140°)8.1 mph0.00 inRainLight Freezing Rain
3:00 PM30.2 °F24.8 °F80 %30.16 in2.5 miSSE (150°)9.2 mph0.00 inRainLight Freezing Rain
3:22 PM30.2 °F26.6 °F86 %30.10 in2.5 miSE (130°)11.5 mph20.7 mph0.00 inRainLight Freezing Rain
3:32 PM30.2 °F26.6 °F86 %30.11 in2.5 miSSE (150°)15.0 mphRainLight Freezing Rain
3:52 PM30.9 °F26.1 °F82 %30.13 in2.5 miSE (140°)12.7 mphRainLight Freezing Rain
4:24 PM30.2 °F26.6 °F86 %30.11 in1.8 miSSE (150°)15.0 mph20.7 mphRainLight Freezing Rain
4:48 PM30.2 °F28.4 °F93 %30.01 in2.0 miSSE (150°)23.0 mph33.4 mphRainLight Freezing Rain
4:52 PM30.9 °F28.0 °F89 %30.05 in2.0 miSSE (150°)17.3 mph33.4 mphRainLight Freezing Rain
5:03 PM30.2 °F28.4 °F93 %30.04 in3.0 miSSE (150°)13.8 mph28.8 mph0.00 inRainLight Freezing Rain
5:08 PM32.0 °F28.4 °F87 %30.06 in4.0 miSSE (160°)9.2 mph21.9 mph0.00 inRainLight Freezing Rain
5:21 PM32.0 °F28.4 °F87 %30.05 in5.0 miSSE (160°)15.0 mph21.9 mph0.00 inOvercast
5:52 PM32.0 °F28.9 °F88 %30.07 in5.0 miSouth (170°)6.9 mph0.00 inOvercast
6:04 PM32.0 °F28.4 °F87 %30.01 in4.0 miSSE (160°)19.6 mph26.5 mph0.00 inRain-ThunderstormLight Freezing Rain
6:23 PM32.0 °F28.4 °F87 %30.03 in5.0 miSSE (160°)12.7 mph0.00 inRainLight Freezing Rain
6:33 PM32.0 °F30.2 °F93 %30.03 in3.0 miSouth (180°)11.5 mph19.6 mph0.00 inRain-ThunderstormLight Freezing Rain
6:48 PM33.8 °F30.2 °F87 %30.02 in4.0 miSouth (170°)12.7 mph17.3 mph0.00 inRainLight Freezing Rain
6:52 PM33.1 °F30.0 °F89 %30.02 in4.0 miSSE (160°)16.1 mph23.0 mph0.00 inRainLight Freezing Rain
7:23 PM33.8 °F30.2 °F87 %30.00 in2.5 miSouth (190°)11.5 mph27.6 mph0.00 inRainLight Freezing Rain
7:32 PM33.8 °F30.2 °F87 %29.99 in3.0 miSouth (170°)11.5 mph18.4 mph0.00 inRainLight Freezing Rain
7:52 PM33.1 °F30.9 °F92 %30.01 in5.0 miSouth (170°)11.5 mph0.01 inOvercast
8:17 PM33.8 °F30.2 °F87 %29.97 in1.8 miSouth (170°)13.8 mph20.7 mph0.01 inSnowLight Snow
8:32 PM33.8 °F32.0 °F93 %29.97 in3.0 miSouth (170°)13.8 mph0.03 inRainLight Rain
8:52 PM34.0 °F32.0 °F92 %29.99 in5.0 miSouth (170°)15.0 mph0.03 inRainLight Rain
10:52 PM35.1 °F33.1 °F92 %29.95 in4.0 miSouth (180°)15.0 mph23.0 mph0.20 inOvercast
11:44 PM35.6 °F33.8 °F93 %29.92 in1.8 miSouth (180°)10.4 mph0.02 inOvercast
11:52 PM36.0 °F35.1 °F97 %29.94 in1.2 miSouth (180°)10.4 mph0.02 inSnowLight Snow
Hourly data recorded from KPWK, located miles away from Chicago, Illinois







STORIES FROM OUR PARTNERS